Location: Waco, TX
(31.5480°N, 97.1670°W)
Time: 21:43:28
(UTC-06:00)

ISS - Pass Details

Date: 20 February 2019
Orbit: 403 x 411 km, 51.6° (Epoch: 22 February)

Event Time Altitude Azimuth Distance (km) Brightness Sun altitude
Rises 16:19:55 0° 288° (WNW) 2,322 0.6 22.9°
Reaches altitude 10° 16:23:40 10° 244° (WSW) 1,459 1.2 22.2°
Maximum altitude 16:24:11 10° 235° (SW) 1,442 1.1 22.2°
Drops below altitude 10° 16:24:42 10° 226° (SW) 1,458 0.7 22.1°
Sets 16:28:28 0° 181° (S) 2,314 0.4 21.4°
